Location: Berg
(48.4333°N, 13.9167°E)
Time: 09:16:55
(UTC+00:00)

MetOp-A - Pass Details

Date: 18 September 2020
Orbit: 820 x 821 km, 98.5° (Epoch: 28 October)

Event Time Altitude Azimuth Distance (km) Brightness Sun altitude
Exits shadow 18:22:24 11° 143° (SE) 2,375 6.1 -12.6°
Maximum altitude 18:27:27 52° 69° (ENE) 1,016 4.3 -13.4°
Drops below altitude 10° 18:32:39 10° 354° (N) 2,430 6.9 -14.3°
Sets 18:35:03 0° 350° (N) 3,367 7.8 -14.6°
